COSMOS 2251 DEB, 36385

Orbit data source: Space-Track

COSMOS 2251 DEB, 36385 is space debris in LEO originally from a launch on Wed, 16 Jun 1993 UTC launched from the Plesetsk Missile And Space Complex (PKMTR). The debris from Iridium 33, an American commercial communications satellite, has been tracked extensively since its accidental collision with the defunct Russian satellite Cosmos 2251 in 2009. This event, occurring at high speed in low Earth orbit (LEO), generated thousands of pieces of space debris, significantly increasing the risk of further collisions. The Iridium 33 debris cloud has impacted space traffic management and orbital debris mitigation strategies, making it a subject of ongoing study in space situational awareness.

Loading next visibility...
Identifier
36385, 1993-036AZN
Orbit
LEO
Country
Flag of CISCIS
Related business
Manufacturer
Unknown
Mission
Spacecraft
Bus & Motor
Unknown
Mass
Unknown
Launch date (UTC)
1993-06-16 (33 years ago)
Launch vehicle
Unknown
Launch site
Plesetsk Missile And Space Complex (PKMTR)
Object type
Payload
Rocket body
Debris
Shape & HBR
Unknown shape, 0.1 m
Radar Cross Section
Small (<0.1 m²)

Expand to show TLE details & history
Last TLE update: 1 day ago

TLE from 1 day ago
0 COSMOS 2251 DEB
1 36385U 93036AZN 26061.23531989  .00011387  00000-0  14679-2 0  9990
2 36385  73.9721 358.8199 0136823 155.4351 205.3425 14.74668848862739
Epoch: 2026-03-02T05:38Z
TLE epoch observation values (Epoch: 2026-03-02T05:38:51.638Z)
Latitude
-0.00004°
Longitude
114.07309°
Altitude
735.97 km
Speed
7.441 km/s
True Right ascension
23h 55m 16s
True Declination
0° 00' 00"
Sunlit
Object was in daylight at epoch
Visualization orbit readout
Latitude
Unknown
Longitude
Unknown
Altitude
Unknown
Speed
Unknown
Apparent Right ascension
Unknown
Apparent Declination
Unknown
Sunlit
N/A
Visualization observer readout
Local Sidereal Time
18:11:42
Azimuth
Unknown
Elevation
Unknown
Doppler factor
Unknown
Orbital elements
Apogee altitude
739.865 km
Perigee altitude
547.713 km
Semi-major axis
7,021.926 km
Eccentricity
0.01368
Inclination
73.9721°
RAAN
358.8199°
Arg. of periapsis
155.4351°
True anomaly
204.68164°
Mean anomaly
205.3425°
Eccentric anomaly
205.01106°
Mean motion
3.68858 °/min
Orbital period
97.6 mins
BSTAR
0.0014679
Loading maneuver chart data...
Computing Atmospheric mass density...

Documentation

Showing up to 5 results
|